AAL2447 KLAX-PHNL

Flight info

Callsign AAL2447
Flight time N/A
Altitude 32000
Route SUMMR2 DINTY DUETS R576 DENNS MAGGI3
Aircraft A321/M-SDE3FGHIRWY/LB1

Departure

Time 2026-04-22 15:04
Airport Los Angeles International Airport (KLAX)

Arrival

Time N/A
Airport Daniel K. Inouye International Airport (PHNL)
Time Latitude Longitude Altitude Speed Heading
2026-04-22 14:18 33.94637 -118.40844 125 ft 0 kts 86°
2026-04-22 14:46 33.94636 -118.40860 122 ft 3 kts 86°
2026-04-22 14:47 33.94634 -118.40882 123 ft 3 kts 48°
2026-04-22 14:47 33.94619 -118.40893 123 ft 1 kts 357°
2026-04-22 14:47 33.94618 -118.40893 123 ft 0 kts 357°
2026-04-22 14:48 33.94621 -118.40893 123 ft 1 kts 357°
2026-04-22 14:48 33.94627 -118.40894 122 ft 1 kts 350°
2026-04-22 14:49 33.94649 -118.40902 122 ft 5 kts 343°
2026-04-22 14:49 33.94682 -118.40911 124 ft 0 kts 352°
2026-04-22 14:50 33.94688 -118.40912 124 ft 0 kts 352°
2026-04-22 14:50 33.94710 -118.40914 125 ft 8 kts 358°
2026-04-22 14:50 33.94774 -118.40892 123 ft 11 kts 19°
2026-04-22 14:50 33.94836 -118.40847 123 ft 11 kts 68°
2026-04-22 14:51 33.94850 -118.40747 124 ft 13 kts 82°
2026-04-22 14:51 33.94859 -118.40655 125 ft 14 kts 83°
2026-04-22 14:51 33.94872 -118.40521 124 ft 16 kts 82°
2026-04-22 14:51 33.94887 -118.40381 125 ft 15 kts 83°
2026-04-22 14:52 33.94901 -118.40248 123 ft 17 kts 83°
2026-04-22 14:52 33.94915 -118.40103 125 ft 18 kts 83°
2026-04-22 14:52 33.94929 -118.39981 125 ft 0 kts 79°
2026-04-22 14:53 33.94931 -118.39971 125 ft 5 kts 77°
2026-04-22 14:53 33.94962 -118.39921 125 ft 0 kts 30°
2026-04-22 14:58 33.94963 -118.39921 117 ft 2 kts 28°
2026-04-22 14:58 33.95032 -118.39934 124 ft 16 kts 311°
2026-04-22 14:58 33.95039 -118.39985 124 ft 0 kts 261°
2026-04-22 15:03 33.95021 -118.40135 125 ft 48 kts 262°
2026-04-22 15:03 33.94998 -118.40357 125 ft 77 kts 263°
2026-04-22 15:03 33.94822 -118.42105 127 ft 168 kts 263°
2026-04-22 15:03 33.94702 -118.43299 431 ft 179 kts 264°
2026-04-22 15:04 33.94571 -118.44611 873 ft 183 kts 263°
2026-04-22 15:04 33.94418 -118.46171 1257 ft 190 kts 264°
2026-04-22 15:04 33.94303 -118.47875 1365 ft 215 kts 267°
2026-04-22 15:04 33.94237 -118.49757 1538 ft 238 kts 268°
2026-04-22 15:05 33.94156 -118.51816 1914 ft 250 kts 266°
2026-04-22 15:05 33.94005 -118.54039 2571 ft 254 kts 265°
2026-04-22 15:05 33.93841 -118.56113 3221 ft 255 kts 264°
2026-04-22 15:05 33.93665 -118.58274 3896 ft 256 kts 265°
2026-04-22 15:06 33.93490 -118.60394 4541 ft 258 kts 265°
2026-04-22 15:06 33.93311 -118.62610 5188 ft 260 kts 265°
2026-04-22 15:06 33.93140 -118.64778 5817 ft 261 kts 266°
2026-04-22 15:06 33.92969 -118.66958 6462 ft 261 kts 266°
2026-04-22 15:07 33.92800 -118.69141 7072 ft 262 kts 266°
2026-04-22 15:07 33.92629 -118.71331 7668 ft 263 kts 266°
2026-04-22 15:07 33.92458 -118.73525 8274 ft 263 kts 266°
2026-04-22 15:07 33.92288 -118.75718 8876 ft 264 kts 266°
2026-04-22 15:08 33.92116 -118.77923 9482 ft 265 kts 266°
2026-04-22 15:08 33.91944 -118.80133 10071 ft 265 kts 266°
2026-04-22 15:08 33.91772 -118.82325 10608 ft 266 kts 265°
2026-04-22 15:08 33.91716 -118.84562 11133 ft 266 kts 271°
2026-04-22 15:09 33.91770 -118.86869 11347 ft 282 kts 272°
2026-04-22 15:09 33.91848 -118.89295 11478 ft 298 kts 272°
2026-04-22 15:09 33.91932 -118.91822 11674 ft 311 kts 272°
2026-04-22 15:09 33.92019 -118.94456 12126 ft 315 kts 272°
2026-04-22 15:10 33.92105 -118.97095 12647 ft 317 kts 272°
2026-04-22 15:10 33.92189 -118.99749 13179 ft 318 kts 273°
2026-04-22 15:10 33.92645 -119.02350 13686 ft 322 kts 293°
2026-04-22 15:10 33.93782 -119.04708 14151 ft 326 kts 298°
2026-04-22 15:11 33.94995 -119.07059 14445 ft 335 kts 298°
2026-04-22 15:11 33.96245 -119.09458 14801 ft 340 kts 298°
2026-04-22 15:11 33.97508 -119.11883 15242 ft 343 kts 298°
2026-04-22 15:11 33.98779 -119.14329 15705 ft 345 kts 298°
2026-04-22 15:12 34.00069 -119.16820 16156 ft 347 kts 298°
2026-04-22 15:12 34.01579 -119.19121 16588 ft 357 kts 314°
2026-04-22 15:12 34.03521 -119.20964 17056 ft 362 kts 317°
2026-04-22 15:12 34.05571 -119.22746 17513 ft 365 kts 319°
2026-04-22 15:13 34.07669 -119.24495 17953 ft 368 kts 319°
2026-04-22 15:13 34.09817 -119.26272 18389 ft 370 kts 319°
2026-04-22 15:13 34.11940 -119.28046 18774 ft 372 kts 319°
2026-04-22 15:13 34.14058 -119.29840 19155 ft 374 kts 318°
2026-04-22 15:14 34.16186 -119.31665 19534 ft 375 kts 318°
2026-04-22 15:14 34.18318 -119.33504 19918 ft 377 kts 317°
2026-04-22 15:14 34.20456 -119.35356 20299 ft 379 kts 317°
2026-04-22 15:14 34.22607 -119.37221 20715 ft 381 kts 317°
2026-04-22 15:15 34.24770 -119.39096 21084 ft 382 kts 317°
2026-04-22 15:15 34.26936 -119.40972 21450 ft 384 kts 317°
2026-04-22 15:15 34.29117 -119.42858 21783 ft 386 kts 317°
2026-04-22 15:15 34.31310 -119.44753 22130 ft 388 kts 317°
2026-04-22 15:16 34.33509 -119.46655 22461 ft 390 kts 317°
2026-04-22 15:16 34.35692 -119.48547 22792 ft 392 kts 317°
2026-04-22 15:16 34.37941 -119.50499 23118 ft 394 kts 316°
2026-04-22 15:16 34.40034 -119.52604 23440 ft 384 kts 302°
2026-04-22 15:17 34.41284 -119.55356 23736 ft 370 kts 282°
2026-04-22 15:17 34.41621 -119.58411 23971 ft 366 kts 268°
2026-04-22 15:17 34.41391 -119.61488 24244 ft 367 kts 261°
2026-04-22 15:17 34.40924 -119.64501 24506 ft 369 kts 258°
2026-04-22 15:18 34.40418 -119.67554 24772 ft 370 kts 259°
2026-04-22 15:18 34.39976 -119.70668 25042 ft 371 kts 261°
2026-04-22 15:18 34.39640 -119.73736 25306 ft 373 kts 263°
2026-04-22 15:18 34.39378 -119.76865 25572 ft 374 kts 264°
2026-04-22 15:19 34.39163 -119.80009 25833 ft 375 kts 265°
2026-04-22 15:19 34.38963 -119.83205 26091 ft 376 kts 265°
2026-04-22 15:19 34.38766 -119.86363 26343 ft 378 kts 265°
2026-04-22 15:19 34.38561 -119.89542 26593 ft 379 kts 264°
2026-04-22 15:20 34.38418 -119.91650 26758 ft 380 kts 264°
2026-04-22 15:20 34.38116 -119.95925 27078 ft 381 kts 264°
2026-04-22 15:20 34.37885 -119.99122 27312 ft 383 kts 264°
2026-04-22 15:20 34.37649 -120.02342 27529 ft 384 kts 264°
2026-04-22 15:21 34.37411 -120.05563 27757 ft 385 kts 264°
2026-04-22 15:21 34.37174 -120.08792 27993 ft 386 kts 264°
2026-04-22 15:21 34.36935 -120.12037 28212 ft 387 kts 264°
2026-04-22 15:21 34.36695 -120.15290 28404 ft 389 kts 264°
2026-04-22 15:22 34.36456 -120.18558 28622 ft 390 kts 264°
2026-04-22 15:22 34.36214 -120.21842 28838 ft 392 kts 264°
2026-04-22 15:22 34.35969 -120.25133 29195 ft 389 kts 264°
2026-04-22 15:22 34.35725 -120.28383 29657 ft 385 kts 264°
2026-04-22 15:23 34.35481 -120.31605 29948 ft 385 kts 264°
2026-04-22 15:23 34.35238 -120.34824 30170 ft 385 kts 264°
2026-04-22 15:23 34.34992 -120.38065 30366 ft 386 kts 264°
2026-04-22 15:23 34.34744 -120.41305 30526 ft 388 kts 264°
2026-04-22 15:24 34.34491 -120.44614 30661 ft 390 kts 263°
2026-04-22 15:24 34.33888 -120.47769 30820 ft 392 kts 247°
2026-04-22 15:24 34.31763 -120.52702 31073 ft 395 kts 246°
2026-04-22 15:25 34.30572 -120.55726 31235 ft 395 kts 247°
2026-04-22 15:25 34.29425 -120.58770 31404 ft 396 kts 248°
2026-04-22 15:25 34.28290 -120.61801 31559 ft 397 kts 248°
2026-04-22 15:25 34.27135 -120.64839 31722 ft 398 kts 247°
2026-04-22 15:26 34.25959 -120.67880 31872 ft 399 kts 247°
2026-04-22 15:26 34.24772 -120.70899 32170 ft 395 kts 246°
2026-04-22 15:26 34.22417 -120.76817 32232 ft 387 kts 246°
2026-04-22 15:27 34.20073 -120.82677 32235 ft 386 kts 246°
2026-04-22 15:27 34.17744 -120.88493 32235 ft 386 kts 246°
2026-04-22 15:28 34.15413 -120.94345 32233 ft 386 kts 246°
2026-04-22 15:28 34.13077 -121.00200 32232 ft 386 kts 246°
2026-04-22 15:29 34.10737 -121.06042 32235 ft 386 kts 246°
2026-04-22 15:30 34.07218 -121.14820 32240 ft 387 kts 246°
2026-04-22 15:30 34.04803 -121.20817 32246 ft 386 kts 246°
2026-04-22 15:31 34.02470 -121.26611 32236 ft 386 kts 246°
2026-04-22 15:31 34.00094 -121.32494 32239 ft 387 kts 246°
2026-04-22 15:32 33.97756 -121.38286 32242 ft 387 kts 246°
2026-04-22 15:32 33.95397 -121.44113 32246 ft 387 kts 246°
2026-04-22 15:33 33.93041 -121.49932 32251 ft 387 kts 246°
2026-04-22 15:33 33.90670 -121.55758 32250 ft 386 kts 245°
2026-04-22 15:34 33.88299 -121.61575 32253 ft 386 kts 246°
2026-04-22 15:34 33.85939 -121.67370 32256 ft 386 kts 246°
2026-04-22 15:35 33.83947 -121.72250 32253 ft 386 kts 245°
2026-04-22 15:35 33.81168 -121.79047 32255 ft 386 kts 246°
2026-04-22 15:36 33.78742 -121.84965 32255 ft 386 kts 245°
2026-04-22 15:36 33.76296 -121.90909 32257 ft 386 kts 245°
2026-04-22 15:37 33.74313 -121.95735 32255 ft 386 kts 245°
2026-04-22 15:37 33.71931 -122.01521 32262 ft 386 kts 245°
2026-04-22 15:38 33.69525 -122.07348 32262 ft 386 kts 245°
2026-04-22 15:38 33.65940 -122.16005 32232 ft 386 kts 245°
2026-04-22 15:39 33.63544 -122.21786 32243 ft 386 kts 245°
2026-04-22 15:39 33.61150 -122.27570 32248 ft 386 kts 245°
2026-04-22 15:40 33.58740 -122.33384 32251 ft 386 kts 245°
2026-04-22 15:40 33.56345 -122.39129 32252 ft 386 kts 245°
2026-04-22 15:41 33.53939 -122.44901 32255 ft 386 kts 245°
2026-04-22 15:41 33.51527 -122.50683 32258 ft 386 kts 245°
2026-04-22 15:42 33.49126 -122.56412 32263 ft 386 kts 245°
2026-04-22 15:42 33.47427 -122.62572 32256 ft 384 kts 256°
2026-04-22 15:43 33.46137 -122.68888 32260 ft 385 kts 256°
2026-04-22 15:43 33.44856 -122.75127 32263 ft 385 kts 256°
2026-04-22 15:44 33.43579 -122.81319 32262 ft 385 kts 256°
2026-04-22 15:44 33.42287 -122.87542 32264 ft 385 kts 256°
2026-04-22 15:45 33.40999 -122.93776 32259 ft 385 kts 256°
2026-04-22 15:45 33.39700 -122.99999 32262 ft 385 kts 256°
2026-04-22 15:46 33.38386 -123.06274 32265 ft 385 kts 256°
2026-04-22 15:46 33.37094 -123.12457 32267 ft 385 kts 256°
2026-04-22 15:47 33.35784 -123.18692 32263 ft 385 kts 256°
2026-04-22 15:47 33.34473 -123.24915 32282 ft 385 kts 256°
2026-04-22 15:48 33.33159 -123.31143 32282 ft 385 kts 256°
2026-04-22 15:48 33.31840 -123.37362 32283 ft 385 kts 256°
2026-04-22 15:49 33.30518 -123.43569 32285 ft 385 kts 256°
2026-04-22 15:49 33.29191 -123.49784 32283 ft 385 kts 256°
2026-04-22 15:50 33.27868 -123.55986 32283 ft 385 kts 256°
2026-04-22 15:50 33.26536 -123.62190 32281 ft 385 kts 256°
2026-04-22 15:51 33.25209 -123.68392 32282 ft 385 kts 256°
2026-04-22 15:51 33.23884 -123.74594 32274 ft 385 kts 256°
2026-04-22 15:52 33.22786 -123.79664 32278 ft 385 kts 256°
2026-04-22 15:52 33.21391 -123.86081 32278 ft 386 kts 256°
2026-04-22 15:53 33.20053 -123.92296 32281 ft 386 kts 256°
2026-04-22 15:53 33.18704 -123.98517 32275 ft 386 kts 256°
2026-04-22 15:54 33.17341 -124.04730 32281 ft 386 kts 255°
2026-04-22 15:54 33.15983 -124.10943 32283 ft 387 kts 256°
2026-04-22 15:55 33.14622 -124.17170 32286 ft 387 kts 255°
2026-04-22 15:55 33.13249 -124.23438 32278 ft 387 kts 256°
2026-04-22 15:56 33.11879 -124.29674 32276 ft 388 kts 255°
2026-04-22 15:56 33.10498 -124.35904 32279 ft 388 kts 255°
2026-04-22 15:57 33.09125 -124.42113 32284 ft 388 kts 256°
2026-04-22 15:57 33.07739 -124.48347 32275 ft 389 kts 256°
2026-04-22 15:58 33.06351 -124.54590 32276 ft 389 kts 256°
2026-04-22 15:58 33.04958 -124.60841 32281 ft 389 kts 256°
2026-04-22 15:59 33.03558 -124.67087 32287 ft 389 kts 256°
2026-04-22 15:59 33.02234 -124.72993 32290 ft 389 kts 256°
2026-04-22 16:00 33.00747 -124.79621 32293 ft 389 kts 256°
2026-04-22 16:00 32.99339 -124.85854 32302 ft 389 kts 255°
2026-04-22 16:01 32.97925 -124.92089 32304 ft 389 kts 256°
2026-04-22 16:01 32.96513 -124.98324 32302 ft 389 kts 255°
2026-04-22 16:02 32.95094 -125.04555 32303 ft 389 kts 256°
2026-04-22 16:02 32.93675 -125.10785 32307 ft 389 kts 255°
2026-04-22 16:03 32.92253 -125.17001 32312 ft 389 kts 255°
2026-04-22 16:03 32.90826 -125.23221 32313 ft 389 kts 255°
2026-04-22 16:04 32.89404 -125.29403 32304 ft 389 kts 255°
2026-04-22 16:04 32.87975 -125.35613 32303 ft 389 kts 255°
2026-04-22 16:05 32.86546 -125.41819 32310 ft 388 kts 255°
2026-04-22 16:05 32.85107 -125.48024 32297 ft 388 kts 255°
2026-04-22 16:06 32.83665 -125.54224 32307 ft 388 kts 255°
2026-04-22 16:06 32.82222 -125.60423 32311 ft 388 kts 255°
2026-04-22 16:07 32.81020 -125.65588 32309 ft 389 kts 255°
2026-04-22 16:07 32.79307 -125.72922 32311 ft 389 kts 255°
2026-04-22 16:08 32.77859 -125.79123 32306 ft 389 kts 255°
2026-04-22 16:08 32.76407 -125.85319 32310 ft 388 kts 255°
2026-04-22 16:09 32.74950 -125.91504 32311 ft 388 kts 255°
2026-04-22 16:09 32.73488 -125.97695 32312 ft 388 kts 255°
2026-04-22 16:10 32.72026 -126.03870 32316 ft 388 kts 255°
2026-04-22 16:10 32.70561 -126.10052 32317 ft 388 kts 255°
2026-04-22 16:11 32.69328 -126.15223 32317 ft 388 kts 255°
2026-04-22 16:11 32.67857 -126.21394 32316 ft 388 kts 255°
2026-04-22 16:12 32.66379 -126.27572 32304 ft 388 kts 255°
2026-04-22 16:12 32.64901 -126.33724 32311 ft 387 kts 255°
2026-04-22 16:13 32.63427 -126.39886 32316 ft 387 kts 255°
2026-04-22 16:13 32.61956 -126.46042 32316 ft 387 kts 255°
2026-04-22 16:14 32.60485 -126.52144 32310 ft 387 kts 255°
2026-04-22 16:14 32.58992 -126.58297 32313 ft 387 kts 255°
2026-04-22 16:15 32.57356 -126.65069 32314 ft 387 kts 255°
2026-04-22 16:15 32.55963 -126.70821 32314 ft 386 kts 255°
2026-04-22 16:16 32.54488 -126.76889 32315 ft 387 kts 255°
2026-04-22 16:16 32.52975 -126.83085 32317 ft 387 kts 254°
2026-04-22 16:17 32.51475 -126.89209 32316 ft 386 kts 254°
2026-04-22 16:17 32.49977 -126.95339 32320 ft 386 kts 254°
2026-04-22 16:18 32.48481 -127.01434 32313 ft 386 kts 254°
2026-04-22 16:18 32.46977 -127.07559 32321 ft 385 kts 254°
2026-04-22 16:19 32.45478 -127.13652 32324 ft 385 kts 254°
2026-04-22 16:19 32.43968 -127.19743 32323 ft 385 kts 254°
2026-04-22 16:20 32.42453 -127.25837 32316 ft 384 kts 254°
2026-04-22 16:20 32.40950 -127.31881 32317 ft 385 kts 254°
2026-04-22 16:21 32.39441 -127.37960 32321 ft 384 kts 254°
2026-04-22 16:21 32.37936 -127.43995 32316 ft 384 kts 254°
2026-04-22 16:22 32.35648 -127.53154 32315 ft 384 kts 254°
2026-04-22 16:23 32.33364 -127.62251 32322 ft 384 kts 254°
2026-04-22 16:23 32.31848 -127.68259 32323 ft 383 kts 254°
2026-04-22 16:24 32.29553 -127.77346 32324 ft 383 kts 254°
2026-04-22 16:25 32.28038 -127.83357 32328 ft 383 kts 254°
2026-04-22 16:25 32.25727 -127.92452 32290 ft 386 kts 254°
2026-04-22 16:26 32.24164 -127.98569 32284 ft 389 kts 253°
2026-04-22 16:26 32.22598 -128.04693 32286 ft 390 kts 253°
2026-04-22 16:27 32.21030 -128.10854 32294 ft 391 kts 253°
2026-04-22 16:27 32.19450 -128.17012 32301 ft 391 kts 253°
2026-04-22 16:28 32.18153 -128.22049 32298 ft 391 kts 253°
2026-04-22 16:28 32.16285 -128.29323 32310 ft 391 kts 253°
2026-04-22 16:29 32.14714 -128.35445 32310 ft 391 kts 253°
2026-04-22 16:29 32.13125 -128.41598 32312 ft 391 kts 253°
2026-04-22 16:30 32.11781 -128.46704 32314 ft 391 kts 253°
2026-04-22 16:30 32.10186 -128.52838 32315 ft 391 kts 253°
2026-04-22 16:31 32.08610 -128.58968 32315 ft 391 kts 253°
2026-04-22 16:31 32.07016 -128.65106 32315 ft 390 kts 253°
2026-04-22 16:32 32.05423 -128.71202 32296 ft 390 kts 253°
2026-04-22 16:32 32.03817 -128.77327 32301 ft 390 kts 253°
2026-04-22 16:33 32.02201 -128.83445 32306 ft 390 kts 253°
2026-04-22 16:33 32.00594 -128.89558 32293 ft 390 kts 253°
2026-04-22 16:34 31.99005 -128.95624 32305 ft 389 kts 253°
2026-04-22 16:34 31.97394 -129.01724 32308 ft 389 kts 253°
2026-04-22 16:35 31.95788 -129.07802 32306 ft 389 kts 253°
2026-04-22 16:35 31.94168 -129.13891 32301 ft 388 kts 253°
2026-04-22 16:36 31.92548 -129.19956 32306 ft 388 kts 253°
2026-04-22 16:36 31.90987 -129.25823 32307 ft 388 kts 253°
2026-04-22 16:37 31.89307 -129.32134 32305 ft 388 kts 253°
2026-04-22 16:37 31.87687 -129.38191 32302 ft 387 kts 252°
2026-04-22 16:38 31.86070 -129.44244 32308 ft 387 kts 252°
2026-04-22 16:38 31.84454 -129.50247 32308 ft 387 kts 252°
2026-04-22 16:39 31.82819 -129.56294 32309 ft 387 kts 252°
2026-04-22 16:39 31.81177 -129.62369 32309 ft 387 kts 252°
2026-04-22 16:40 31.79545 -129.68406 32309 ft 386 kts 252°
2026-04-22 16:41 31.77096 -129.77441 32311 ft 386 kts 252°
2026-04-22 16:41 31.75463 -129.83428 32309 ft 386 kts 252°
2026-04-22 16:42 31.73824 -129.89460 32317 ft 386 kts 252°
2026-04-22 16:42 31.72183 -129.95475 32309 ft 386 kts 252°
2026-04-22 16:43 31.70536 -130.01479 32306 ft 386 kts 252°
2026-04-22 16:43 31.68885 -130.07504 32299 ft 387 kts 252°
2026-04-22 16:44 31.67236 -130.13502 32283 ft 389 kts 252°
2026-04-22 16:44 31.65568 -130.19569 32284 ft 391 kts 252°
2026-04-22 16:45 31.63895 -130.25649 32286 ft 391 kts 252°
2026-04-22 16:45 31.62208 -130.31743 32287 ft 392 kts 252°
2026-04-22 16:46 31.60520 -130.37826 32295 ft 392 kts 252°
2026-04-22 16:46 31.58834 -130.43918 32301 ft 393 kts 252°
2026-04-22 16:47 31.57140 -130.50018 32294 ft 393 kts 252°
2026-04-22 16:47 31.55729 -130.55078 32298 ft 393 kts 252°
2026-04-22 16:48 31.53736 -130.62203 32307 ft 393 kts 251°
2026-04-22 16:48 31.52030 -130.68294 32314 ft 393 kts 251°
2026-04-22 16:49 31.50321 -130.74393 32307 ft 393 kts 251°
2026-04-22 16:49 31.48618 -130.80461 32317 ft 393 kts 251°
2026-04-22 16:50 31.46899 -130.86563 32305 ft 393 kts 251°
2026-04-22 16:50 31.45187 -130.92642 32307 ft 393 kts 251°
2026-04-22 16:51 31.43484 -130.98687 32304 ft 392 kts 251°
2026-04-22 16:51 31.41757 -131.04772 32300 ft 392 kts 251°
2026-04-22 16:52 31.40025 -131.10835 32301 ft 392 kts 251°
2026-04-22 16:52 31.38303 -131.16895 32294 ft 392 kts 251°
2026-04-22 16:53 31.36577 -131.22967 32284 ft 392 kts 251°
2026-04-22 16:53 31.34839 -131.29044 32285 ft 393 kts 251°
2026-04-22 16:54 31.33113 -131.35060 32291 ft 393 kts 251°
2026-04-22 16:54 31.31368 -131.41129 32292 ft 393 kts 251°
2026-04-22 16:55 31.29623 -131.47206 32294 ft 393 kts 251°
2026-04-22 16:55 31.27883 -131.53270 32298 ft 393 kts 251°
2026-04-22 16:56 31.26140 -131.59334 32294 ft 393 kts 251°
2026-04-22 16:56 31.24403 -131.65356 32297 ft 393 kts 251°
2026-04-22 16:57 31.22648 -131.71417 32299 ft 393 kts 251°
2026-04-22 16:57 31.20893 -131.77463 32299 ft 393 kts 250°
2026-04-22 16:58 31.19424 -131.82498 32289 ft 394 kts 250°
2026-04-22 16:58 31.17654 -131.88564 32294 ft 395 kts 250°
2026-04-22 16:59 31.15878 -131.94654 32294 ft 396 kts 251°
2026-04-22 16:59 31.14102 -132.00744 32294 ft 396 kts 250°
2026-04-22 17:00 31.12315 -132.06840 32316 ft 396 kts 250°
2026-04-22 17:00 31.09622 -132.16007 32283 ft 399 kts 250°
2026-04-22 17:01 31.07820 -132.22124 32273 ft 400 kts 250°
2026-04-22 17:01 31.05992 -132.28283 32284 ft 402 kts 250°
2026-04-22 17:02 31.04162 -132.34468 32286 ft 403 kts 250°
2026-04-22 17:02 31.02299 -132.40791 32296 ft 403 kts 250°
2026-04-22 17:03 31.00411 -132.47148 32302 ft 403 kts 250°
2026-04-22 17:03 30.98642 -132.53082 32304 ft 403 kts 250°
2026-04-22 17:04 30.96810 -132.59214 32295 ft 402 kts 250°
2026-04-22 17:04 30.94959 -132.65385 32300 ft 403 kts 250°
2026-04-22 17:05 30.93121 -132.71546 32301 ft 403 kts 250°
2026-04-22 17:05 30.91271 -132.77729 32304 ft 403 kts 250°
2026-04-22 17:06 30.89417 -132.83899 32309 ft 403 kts 250°
2026-04-22 17:06 30.87557 -132.90066 32310 ft 403 kts 250°
2026-04-22 17:07 30.85693 -132.96243 32307 ft 403 kts 250°
2026-04-22 17:07 30.83832 -133.02410 32308 ft 403 kts 250°
2026-04-22 17:08 30.81964 -133.08571 32304 ft 404 kts 250°
2026-04-22 17:08 30.80102 -133.14701 32309 ft 404 kts 250°
2026-04-22 17:09 30.78223 -133.20879 32308 ft 404 kts 250°
2026-04-22 17:09 30.76297 -133.27172 32306 ft 405 kts 250°
2026-04-22 17:10 30.74458 -133.33187 32289 ft 407 kts 250°
2026-04-22 17:10 30.72558 -133.39418 32290 ft 407 kts 250°
2026-04-22 17:11 30.70651 -133.45650 32289 ft 408 kts 249°
2026-04-22 17:11 30.68742 -133.51862 32301 ft 408 kts 249°
2026-04-22 17:12 30.66838 -133.58050 32298 ft 408 kts 249°
2026-04-22 17:12 30.64917 -133.64278 32304 ft 408 kts 250°
2026-04-22 17:13 30.62988 -133.70513 32283 ft 410 kts 250°
2026-04-22 17:13 30.61072 -133.76723 32280 ft 411 kts 250°
2026-04-22 17:14 30.59139 -133.82983 32275 ft 412 kts 250°
2026-04-22 17:14 30.57190 -133.89262 32289 ft 413 kts 249°
2026-04-22 17:15 30.55232 -133.95531 32298 ft 413 kts 249°
2026-04-22 17:15 30.53264 -134.01825 32274 ft 415 kts 250°
2026-04-22 17:16 30.51288 -134.08151 32270 ft 418 kts 250°
2026-04-22 17:16 30.49303 -134.14507 32273 ft 420 kts 250°
2026-04-22 17:17 30.47308 -134.20874 32278 ft 421 kts 250°
2026-04-22 17:17 30.45305 -134.27224 32273 ft 422 kts 250°
2026-04-22 17:18 30.43281 -134.33640 32272 ft 424 kts 250°
2026-04-22 17:18 30.41258 -134.40063 32275 ft 425 kts 250°
2026-04-22 17:19 30.37141 -134.53071 32278 ft 427 kts 250°
2026-04-22 17:20 30.33019 -134.66033 32278 ft 428 kts 250°
2026-04-22 17:21 30.29930 -134.75728 32279 ft 429 kts 250°
2026-04-22 17:22 30.27146 -134.84413 32282 ft 430 kts 250°
2026-04-22 17:23 30.24025 -134.94149 32301 ft 430 kts 250°
2026-04-22 17:23 30.20907 -135.03851 32279 ft 431 kts 250°
2026-04-22 17:24 30.18812 -135.10368 32274 ft 432 kts 250°
2026-04-22 17:24 30.16714 -135.16883 32276 ft 432 kts 250°
2026-04-22 17:25 30.14607 -135.23388 32289 ft 432 kts 250°
2026-04-22 17:25 30.12492 -135.29893 32280 ft 433 kts 250°
2026-04-22 17:26 30.10374 -135.36412 32282 ft 433 kts 250°
2026-04-22 17:26 30.08255 -135.42931 32272 ft 434 kts 250°
2026-04-22 17:27 30.06121 -135.49479 32277 ft 434 kts 250°
2026-04-22 17:27 30.03990 -135.55973 32287 ft 435 kts 250°
2026-04-22 17:28 30.01844 -135.62510 32281 ft 435 kts 250°
2026-04-22 17:28 29.99701 -135.69044 32292 ft 435 kts 250°
2026-04-22 17:29 29.97546 -135.75599 32283 ft 436 kts 250°
2026-04-22 17:29 29.95376 -135.82181 32293 ft 436 kts 250°
2026-04-22 17:30 29.93234 -135.88674 32289 ft 436 kts 250°
2026-04-22 17:30 29.91078 -135.95209 32292 ft 436 kts 250°
2026-04-22 17:31 29.88900 -136.01791 32284 ft 436 kts 250°
2026-04-22 17:31 29.86749 -136.08289 32291 ft 436 kts 250°
2026-04-22 17:32 29.84572 -136.14830 32287 ft 436 kts 250°
2026-04-22 17:32 29.82389 -136.21379 32289 ft 436 kts 250°
2026-04-22 17:33 29.80209 -136.27913 32289 ft 437 kts 250°
2026-04-22 17:33 29.78037 -136.34404 32291 ft 437 kts 250°
2026-04-22 17:34 29.75851 -136.40943 32292 ft 437 kts 250°
2026-04-22 17:34 29.73652 -136.47478 32293 ft 437 kts 250°
2026-04-22 17:35 29.71454 -136.54008 32291 ft 437 kts 250°
2026-04-22 17:35 29.69257 -136.60536 32292 ft 437 kts 250°
2026-04-22 17:36 29.67062 -136.67021 32294 ft 437 kts 250°
2026-04-22 17:36 29.64856 -136.73532 32290 ft 437 kts 250°
2026-04-22 17:37 29.62641 -136.80055 32295 ft 437 kts 250°
2026-04-22 17:37 29.60439 -136.86562 32283 ft 437 kts 250°
2026-04-22 17:38 29.58226 -136.93082 32284 ft 438 kts 250°
2026-04-22 17:38 29.56050 -136.99486 32286 ft 438 kts 250°
2026-04-22 17:39 29.53762 -137.06170 32288 ft 438 kts 250°
2026-04-22 17:40 29.50408 -137.15935 32284 ft 438 kts 250°
2026-04-22 17:40 29.48184 -137.22416 32286 ft 438 kts 250°
2026-04-22 17:41 29.45945 -137.28922 32290 ft 438 kts 250°
2026-04-22 17:41 29.43703 -137.35446 32285 ft 438 kts 250°
2026-04-22 17:42 29.41470 -137.41929 32280 ft 438 kts 250°
2026-04-22 17:42 29.39591 -137.47376 32282 ft 438 kts 250°
2026-04-22 17:43 29.36969 -137.54938 32283 ft 439 kts 250°
2026-04-22 17:43 29.34695 -137.61483 32286 ft 439 kts 249°
2026-04-22 17:44 29.32453 -137.67941 32280 ft 439 kts 250°
2026-04-22 17:44 29.30191 -137.74441 32275 ft 439 kts 249°
2026-04-22 17:45 29.27920 -137.80941 32280 ft 439 kts 249°
2026-04-22 17:45 29.25648 -137.87441 32284 ft 439 kts 249°
2026-04-22 17:46 29.23379 -137.93931 32283 ft 439 kts 249°
2026-04-22 17:46 29.21107 -138.00422 32271 ft 439 kts 249°
2026-04-22 17:47 29.18836 -138.06890 32281 ft 439 kts 249°
2026-04-22 17:47 29.16552 -138.13361 32285 ft 439 kts 249°
2026-04-22 17:48 29.14621 -138.18818 32285 ft 439 kts 249°
2026-04-22 17:48 29.11969 -138.26330 32283 ft 439 kts 249°
2026-04-22 17:49 29.09686 -138.32807 32285 ft 439 kts 249°
2026-04-22 17:49 29.07398 -138.39277 32287 ft 439 kts 249°
2026-04-22 17:50 29.05087 -138.45769 32292 ft 439 kts 249°
2026-04-22 17:50 29.03172 -138.51138 32289 ft 438 kts 249°
2026-04-22 17:51 29.00871 -138.57585 32284 ft 438 kts 249°
2026-04-22 17:51 28.98566 -138.64044 32280 ft 437 kts 249°
2026-04-22 17:52 28.96267 -138.70479 32279 ft 437 kts 249°
2026-04-22 17:52 28.93971 -138.76908 32280 ft 437 kts 249°
2026-04-22 17:53 28.91677 -138.83304 32276 ft 436 kts 249°
2026-04-22 17:53 28.89369 -138.89715 32265 ft 436 kts 249°
2026-04-22 17:54 28.87056 -138.96137 32262 ft 436 kts 249°
2026-04-22 17:54 28.84758 -139.02505 32264 ft 437 kts 249°
2026-04-22 17:55 28.82436 -139.08932 32266 ft 437 kts 249°
2026-04-22 17:55 28.80113 -139.15341 32272 ft 436 kts 249°
2026-04-22 17:56 28.77787 -139.21755 32266 ft 436 kts 249°
2026-04-22 17:56 28.75473 -139.28121 32265 ft 437 kts 249°
2026-04-22 17:57 28.73097 -139.34648 32273 ft 436 kts 249°
2026-04-22 17:57 28.70776 -139.41000 32274 ft 436 kts 249°
2026-04-22 17:58 28.68431 -139.47409 32257 ft 435 kts 249°
2026-04-22 17:58 28.66095 -139.53778 32256 ft 436 kts 249°
2026-04-22 17:59 28.63774 -139.60107 32259 ft 436 kts 249°
2026-04-22 17:59 28.61427 -139.66479 32262 ft 436 kts 249°
2026-04-22 18:00 28.59460 -139.71803 32260 ft 435 kts 249°
2026-04-22 18:00 28.56733 -139.79183 32253 ft 435 kts 249°
2026-04-22 18:01 28.54382 -139.85528 32256 ft 435 kts 248°
2026-04-22 18:01 28.52025 -139.91866 32256 ft 435 kts 248°
2026-04-22 18:02 28.49672 -139.98207 32260 ft 435 kts 248°
2026-04-22 18:02 28.47317 -140.04538 32266 ft 434 kts 248°
2026-04-22 18:03 28.44955 -140.10882 32259 ft 433 kts 248°
2026-04-22 18:03 28.42604 -140.17194 32259 ft 434 kts 248°
2026-04-22 18:04 28.40244 -140.23512 32261 ft 433 kts 248°
2026-04-22 18:04 28.37886 -140.29800 32264 ft 433 kts 248°
2026-04-22 18:05 28.35521 -140.36097 32262 ft 432 kts 248°
2026-04-22 18:05 28.33158 -140.42378 32251 ft 432 kts 248°
2026-04-22 18:06 28.30802 -140.48655 32260 ft 431 kts 248°
2026-04-22 18:06 28.28444 -140.54918 32259 ft 431 kts 248°
2026-04-22 18:07 28.26479 -140.60118 32257 ft 431 kts 248°
2026-04-22 18:07 28.23733 -140.67384 32264 ft 430 kts 248°
2026-04-22 18:08 28.21367 -140.73611 32246 ft 429 kts 248°
2026-04-22 18:08 28.19006 -140.79836 32244 ft 429 kts 248°
2026-04-22 18:09 28.16651 -140.86020 32245 ft 429 kts 248°
2026-04-22 18:09 28.14272 -140.92261 32253 ft 429 kts 248°
2026-04-22 18:10 28.11847 -140.98615 32249 ft 429 kts 248°
2026-04-22 18:10 28.09826 -141.03918 32239 ft 429 kts 248°
2026-04-22 18:11 28.07459 -141.10119 32236 ft 429 kts 248°
2026-04-22 18:11 28.05086 -141.16306 32237 ft 429 kts 248°
2026-04-22 18:12 28.02702 -141.22509 32236 ft 429 kts 248°
2026-04-22 18:12 28.00315 -141.28717 32237 ft 429 kts 248°
2026-04-22 18:13 27.97943 -141.34883 32239 ft 429 kts 248°
2026-04-22 18:13 27.95550 -141.41088 32231 ft 429 kts 248°
2026-04-22 18:14 27.93148 -141.47295 32234 ft 430 kts 248°
2026-04-22 18:14 27.90748 -141.53496 32236 ft 430 kts 248°
2026-04-22 18:15 27.88365 -141.59659 32243 ft 430 kts 248°
2026-04-22 18:15 27.85944 -141.65896 32246 ft 430 kts 248°
2026-04-22 18:16 27.83556 -141.72048 32247 ft 430 kts 248°
2026-04-22 18:16 27.81144 -141.78245 32253 ft 430 kts 248°
2026-04-22 18:17 27.78731 -141.84433 32252 ft 429 kts 248°
2026-04-22 18:17 27.76329 -141.90563 32253 ft 428 kts 248°
2026-04-22 18:18 27.73921 -141.96720 32249 ft 428 kts 248°
2026-04-22 18:18 27.71510 -142.02884 32237 ft 427 kts 248°
2026-04-22 18:19 27.69102 -142.09029 32249 ft 427 kts 248°
2026-04-22 18:19 27.66767 -142.14953 32250 ft 426 kts 248°
2026-04-22 18:20 27.64263 -142.21305 32248 ft 426 kts 248°
2026-04-22 18:20 27.61872 -142.27381 32249 ft 425 kts 248°
2026-04-22 18:21 27.59453 -142.33511 32244 ft 425 kts 248°
2026-04-22 18:21 27.57063 -142.39560 32229 ft 424 kts 248°
2026-04-22 18:22 27.54655 -142.45644 32231 ft 425 kts 248°
2026-04-22 18:22 27.52230 -142.51726 32234 ft 424 kts 248°
2026-04-22 18:23 27.49796 -142.57845 32246 ft 424 kts 248°
2026-04-22 18:23 27.47394 -142.63907 32240 ft 423 kts 248°
2026-04-22 18:24 27.43790 -142.72937 32219 ft 423 kts 248°
2026-04-22 18:25 27.40156 -142.82024 32234 ft 423 kts 248°
2026-04-22 18:25 27.37742 -142.88066 32246 ft 423 kts 248°
2026-04-22 18:26 27.34115 -142.97122 32232 ft 423 kts 248°
2026-04-22 18:26 27.31685 -143.03152 32224 ft 423 kts 248°
2026-04-22 18:27 27.29253 -143.09190 32219 ft 423 kts 249°
2026-04-22 18:27 27.26827 -143.15217 32230 ft 423 kts 248°
2026-04-22 18:28 27.24425 -143.21162 32225 ft 423 kts 248°
2026-04-22 18:28 27.21951 -143.27283 32222 ft 423 kts 249°
2026-04-22 18:29 27.19527 -143.33279 32214 ft 424 kts 249°
2026-04-22 18:29 27.17076 -143.39322 32202 ft 424 kts 249°
2026-04-22 18:30 27.13393 -143.48382 32210 ft 426 kts 249°
2026-04-22 18:31 27.11276 -143.53579 32218 ft 426 kts 249°
2026-04-22 18:31 27.08807 -143.59631 32213 ft 426 kts 249°
2026-04-22 18:32 27.06337 -143.65690 32216 ft 426 kts 249°
2026-04-22 18:32 27.03864 -143.71760 32204 ft 427 kts 249°
2026-04-22 18:33 27.01379 -143.77821 32203 ft 427 kts 249°
2026-04-22 18:33 26.98894 -143.83874 32208 ft 428 kts 249°
2026-04-22 18:34 26.96400 -143.89941 32210 ft 428 kts 249°
2026-04-22 18:34 26.93897 -143.96002 32213 ft 429 kts 249°
2026-04-22 18:35 26.91395 -144.02078 32224 ft 429 kts 249°
2026-04-22 18:35 26.88901 -144.08148 32211 ft 429 kts 249°
2026-04-22 18:36 26.86399 -144.14218 32210 ft 429 kts 249°
2026-04-22 18:36 26.83883 -144.20301 32212 ft 430 kts 249°
2026-04-22 18:37 26.81360 -144.26384 32217 ft 430 kts 249°
2026-04-22 18:37 26.78844 -144.32453 32221 ft 430 kts 249°
2026-04-22 18:38 26.76315 -144.38531 32222 ft 429 kts 249°
2026-04-22 18:38 26.73790 -144.44605 32198 ft 430 kts 249°
2026-04-22 18:39 26.69987 -144.53736 32211 ft 431 kts 249°
2026-04-22 18:39 26.67445 -144.59814 32213 ft 431 kts 249°
2026-04-22 18:40 26.64903 -144.65885 32214 ft 431 kts 249°
2026-04-22 18:40 26.62346 -144.72005 32215 ft 431 kts 249°
2026-04-22 18:41 26.59829 -144.78001 32194 ft 431 kts 249°
2026-04-22 18:41 26.57229 -144.84194 32194 ft 431 kts 249°
2026-04-22 18:42 26.54517 -144.90643 32198 ft 432 kts 249°
2026-04-22 18:42 26.52389 -144.95696 32199 ft 432 kts 249°
2026-04-22 18:43 26.49904 -145.01577 32200 ft 432 kts 249°
2026-04-22 18:43 26.47208 -145.07963 32201 ft 432 kts 249°
2026-04-22 18:44 26.44557 -145.14230 32209 ft 432 kts 249°
2026-04-22 18:44 26.41981 -145.20308 32197 ft 432 kts 249°
2026-04-22 18:45 26.39410 -145.26377 32202 ft 432 kts 249°
2026-04-22 18:45 26.36829 -145.32439 32197 ft 432 kts 248°
2026-04-22 18:46 26.34257 -145.38462 32209 ft 432 kts 249°
2026-04-22 18:46 26.31674 -145.44524 32204 ft 432 kts 249°
2026-04-22 18:47 26.29100 -145.50573 32179 ft 432 kts 248°
2026-04-22 18:47 26.26510 -145.56651 32185 ft 433 kts 248°
2026-04-22 18:48 26.23920 -145.62708 32195 ft 433 kts 248°
2026-04-22 18:48 26.21333 -145.68730 32196 ft 433 kts 248°
2026-04-22 18:49 26.18728 -145.74792 32196 ft 433 kts 248°
2026-04-22 18:49 26.16121 -145.80848 32210 ft 433 kts 248°
2026-04-22 18:50 26.13513 -145.86903 32190 ft 433 kts 248°
2026-04-22 18:50 26.10905 -145.92950 32195 ft 433 kts 248°
2026-04-22 18:51 26.08292 -145.99017 32194 ft 433 kts 248°
2026-04-22 18:51 26.05683 -146.05068 32192 ft 433 kts 248°
2026-04-22 18:52 26.03088 -146.11070 32188 ft 433 kts 248°
2026-04-22 18:52 26.00458 -146.17107 32188 ft 433 kts 248°
2026-04-22 18:53 25.97838 -146.23147 32152 ft 433 kts 248°
2026-04-22 18:53 25.95213 -146.29203 32164 ft 435 kts 248°
2026-04-22 18:54 25.92581 -146.35271 32171 ft 435 kts 249°
2026-04-22 18:54 25.89946 -146.41341 32177 ft 436 kts 248°
2026-04-22 18:55 25.87320 -146.47359 32180 ft 436 kts 248°
2026-04-22 18:55 25.84657 -146.53458 32183 ft 436 kts 248°
2026-04-22 18:56 25.82025 -146.59483 32170 ft 436 kts 249°
2026-04-22 18:56 25.79368 -146.65557 32165 ft 437 kts 249°
2026-04-22 18:57 25.76707 -146.71642 32168 ft 437 kts 249°
2026-04-22 18:57 25.74049 -146.77681 32168 ft 438 kts 248°
2026-04-22 18:58 25.71379 -146.83753 32170 ft 438 kts 248°
2026-04-22 18:58 25.68714 -146.89825 32179 ft 438 kts 249°
2026-04-22 18:59 25.66037 -146.95899 32166 ft 437 kts 249°
2026-04-22 18:59 25.63353 -147.01968 32164 ft 438 kts 249°
2026-04-22 19:00 25.60672 -147.08039 32167 ft 439 kts 249°
2026-04-22 19:00 25.57997 -147.14091 32178 ft 439 kts 249°
2026-04-22 19:01 25.55309 -147.20176 32190 ft 439 kts 249°
2026-04-22 19:01 25.52617 -147.26253 32186 ft 439 kts 249°
2026-04-22 19:02 25.49919 -147.32317 32168 ft 439 kts 249°
2026-04-22 19:02 25.47219 -147.38381 32164 ft 440 kts 249°
2026-04-22 19:03 25.44508 -147.44468 32173 ft 440 kts 249°
2026-04-22 19:03 25.41818 -147.50506 32178 ft 440 kts 249°
2026-04-22 19:04 25.39560 -147.55564 32182 ft 440 kts 249°
2026-04-22 19:04 25.36828 -147.61681 32182 ft 440 kts 249°
2026-04-22 19:05 25.34121 -147.67708 32176 ft 439 kts 249°
2026-04-22 19:05 25.31400 -147.73759 32164 ft 440 kts 249°
2026-04-22 19:06 25.28674 -147.79841 32168 ft 440 kts 249°
2026-04-22 19:07 25.24572 -147.88952 32170 ft 441 kts 249°
2026-04-22 19:07 25.21853 -147.94986 32172 ft 441 kts 249°
2026-04-22 19:08 25.19117 -148.01053 32184 ft 441 kts 249°
2026-04-22 19:08 25.16380 -148.07108 32183 ft 440 kts 249°
2026-04-22 19:09 25.13635 -148.13159 32163 ft 440 kts 249°
2026-04-22 19:09 25.10907 -148.19186 32163 ft 441 kts 249°
2026-04-22 19:10 25.08161 -148.25253 32159 ft 441 kts 248°
2026-04-22 19:10 25.05413 -148.31299 32164 ft 441 kts 249°
2026-04-22 19:11 25.02663 -148.37346 32165 ft 441 kts 248°
2026-04-22 19:11 24.99905 -148.43385 32165 ft 441 kts 248°
2026-04-22 19:12 24.97151 -148.49425 32145 ft 441 kts 248°
2026-04-22 19:12 24.94393 -148.55474 32148 ft 441 kts 248°
2026-04-22 19:13 24.91628 -148.61525 32156 ft 442 kts 248°
2026-04-22 19:13 24.88856 -148.67576 32153 ft 442 kts 248°
2026-04-22 19:14 24.86077 -148.73648 32160 ft 443 kts 248°
2026-04-22 19:14 24.83310 -148.79680 32167 ft 443 kts 248°
2026-04-22 19:15 24.80989 -148.84720 32166 ft 443 kts 248°
2026-04-22 19:15 24.77728 -148.91818 32175 ft 443 kts 248°
2026-04-22 19:16 24.74957 -148.97836 32171 ft 443 kts 248°
2026-04-22 19:16 24.72159 -149.03884 32170 ft 444 kts 248°
2026-04-22 19:17 24.69361 -149.09942 32172 ft 443 kts 248°
2026-04-22 19:17 24.66563 -149.15993 32173 ft 443 kts 248°
2026-04-22 19:18 24.63753 -149.22039 32175 ft 443 kts 248°
2026-04-22 19:18 24.60961 -149.28041 32159 ft 443 kts 248°
2026-04-22 19:19 24.58156 -149.34087 32152 ft 444 kts 248°
2026-04-22 19:19 24.55338 -149.40151 32161 ft 444 kts 248°
2026-04-22 19:20 24.52528 -149.46187 32165 ft 444 kts 248°
2026-04-22 19:20 24.49714 -149.52218 32173 ft 444 kts 248°
2026-04-22 19:21 24.46882 -149.58267 32166 ft 444 kts 248°
2026-04-22 19:21 24.44071 -149.64296 32177 ft 443 kts 248°
2026-04-22 19:22 24.41250 -149.70332 32169 ft 444 kts 248°
2026-04-22 19:22 24.38419 -149.76362 32167 ft 444 kts 248°
2026-04-22 19:23 24.35602 -149.82361 32169 ft 444 kts 248°
2026-04-22 19:23 24.32764 -149.88398 32175 ft 444 kts 248°
2026-04-22 19:24 24.29924 -149.94434 32169 ft 444 kts 248°
2026-04-22 19:24 24.27078 -150.00475 32163 ft 444 kts 248°
2026-04-22 19:25 24.24255 -150.06464 32151 ft 444 kts 248°
2026-04-22 19:25 24.21409 -150.12485 32154 ft 445 kts 248°
2026-04-22 19:26 24.18550 -150.18512 32151 ft 445 kts 247°
2026-04-22 19:26 24.15692 -150.24540 32152 ft 446 kts 248°
2026-04-22 19:27 24.12832 -150.30562 32154 ft 446 kts 248°
2026-04-22 19:27 24.09986 -150.36562 32159 ft 447 kts 248°
2026-04-22 19:28 24.07099 -150.42634 32160 ft 446 kts 247°
2026-04-22 19:28 24.04240 -150.48629 32146 ft 447 kts 247°
2026-04-22 19:29 24.01365 -150.54669 32147 ft 447 kts 247°
2026-04-22 19:29 23.98493 -150.60705 32151 ft 448 kts 247°
2026-04-22 19:30 23.96095 -150.65736 32138 ft 440 kts 248°
2026-04-22 19:30 23.94263 -150.69631 32158 ft 422 kts 248°
2026-04-22 19:30 23.92933 -150.72457 32160 ft 414 kts 248°
2026-04-22 19:31 23.90314 -150.77952 32159 ft 399 kts 248°
2026-04-22 19:31 23.87773 -150.83233 32160 ft 385 kts 248°
2026-04-22 19:32 23.85321 -150.88324 32159 ft 372 kts 248°
2026-04-22 19:32 23.82955 -150.93238 32158 ft 358 kts 248°
2026-04-22 19:33 23.80684 -150.97954 32158 ft 342 kts 248°
2026-04-22 19:33 23.78522 -151.02455 32156 ft 326 kts 248°
2026-04-22 19:34 23.76441 -151.06768 31844 ft 321 kts 248°
2026-04-22 19:34 23.75745 -151.08212 31589 ft 324 kts 248°
2026-04-22 19:34 23.74689 -151.10409 31278 ft 327 kts 248°
2026-04-22 19:34 23.73636 -151.12597 31157 ft 323 kts 248°
2026-04-22 19:35 23.72599 -151.14742 31105 ft 317 kts 248°
2026-04-22 19:35 23.71567 -151.16875 30914 ft 317 kts 248°
2026-04-22 19:35 23.70535 -151.19013 30632 ft 320 kts 248°
2026-04-22 19:35 23.69496 -151.21172 30403 ft 320 kts 248°
2026-04-22 19:36 23.68464 -151.23313 30297 ft 317 kts 248°
2026-04-22 19:36 23.66427 -151.27536 29979 ft 314 kts 248°
2026-04-22 19:36 23.65420 -151.29631 29710 ft 316 kts 248°
2026-04-22 19:37 23.64403 -151.31752 29526 ft 315 kts 248°
2026-04-22 19:37 23.63388 -151.33868 29417 ft 311 kts 248°
2026-04-22 19:37 23.62385 -151.35960 29262 ft 311 kts 248°
2026-04-22 19:37 23.61384 -151.38057 29020 ft 312 kts 248°
2026-04-22 19:38 23.60380 -151.40166 28842 ft 312 kts 248°
2026-04-22 19:38 23.59383 -151.42265 28739 ft 309 kts 248°
2026-04-22 19:38 23.58398 -151.44341 28638 ft 307 kts 248°
2026-04-22 19:38 23.57433 -151.46381 28474 ft 307 kts 248°
2026-04-22 19:39 23.56642 -151.48058 28329 ft 308 kts 248°
2026-04-22 19:39 23.56214 -151.48971 28273 ft 307 kts 248°
2026-04-22 19:39 23.55328 -151.51064 28271 ft 299 kts 256°
2026-04-22 19:40 23.54863 -151.53231 28110 ft 293 kts 273°
2026-04-22 19:40 23.54828 -151.55477 27636 ft 305 kts 268°
2026-04-22 19:40 23.54505 -151.57830 27283 ft 314 kts 264°
2026-04-22 19:40 23.53838 -151.60061 27266 ft 317 kts 240°
2026-04-22 19:41 23.52350 -151.61870 27005 ft 326 kts 231°
2026-04-22 19:41 23.50919 -151.63871 26492 ft 332 kts 242°
2026-04-22 19:41 23.49741 -151.66010 26091 ft 340 kts 246°
2026-04-22 19:41 23.48409 -151.68266 25317 ft 365 kts 234°
2026-04-22 19:42 23.46796 -151.70424 25145 ft 366 kts 234°
2026-04-22 19:42 23.45216 -151.72590 25149 ft 362 kts 236°
2026-04-22 19:42 23.43713 -151.74759 25154 ft 356 kts 238°
2026-04-22 19:42 23.42343 -151.76994 25157 ft 351 kts 242°
2026-04-22 19:43 23.39963 -151.81567 25159 ft 343 kts 246°
2026-04-22 19:43 23.38870 -151.83860 25159 ft 339 kts 246°
2026-04-22 19:43 23.37798 -151.86132 25159 ft 336 kts 246°
2026-04-22 19:44 23.36729 -151.88385 25156 ft 333 kts 246°
2026-04-22 19:44 23.35660 -151.90608 25160 ft 330 kts 246°
2026-04-22 19:44 23.34593 -151.92806 25156 ft 327 kts 245°
2026-04-22 19:44 23.33522 -151.94988 25160 ft 325 kts 245°
2026-04-22 19:45 23.32454 -151.97149 25159 ft 322 kts 245°
2026-04-22 19:45 23.31398 -151.99292 25158 ft 319 kts 245°
2026-04-22 19:45 23.30351 -152.01425 25161 ft 317 kts 246°
2026-04-22 19:45 23.29318 -152.03529 25161 ft 315 kts 246°
2026-04-22 19:46 23.28299 -152.05599 25159 ft 312 kts 245°
2026-04-22 19:46 23.27274 -152.07677 25162 ft 310 kts 245°
2026-04-22 19:46 23.26257 -152.09735 25153 ft 308 kts 245°
2026-04-22 19:46 23.25249 -152.11781 25161 ft 305 kts 245°
2026-04-22 19:47 23.24250 -152.13813 25160 ft 303 kts 245°
2026-04-22 19:47 23.23255 -152.15832 25160 ft 301 kts 245°
2026-04-22 19:47 23.22262 -152.17842 25159 ft 299 kts 245°
2026-04-22 19:47 23.21280 -152.19830 25160 ft 297 kts 245°
2026-04-22 19:48 23.20315 -152.21782 25165 ft 295 kts 245°
2026-04-22 19:48 23.19336 -152.23766 25161 ft 293 kts 245°
2026-04-22 19:48 23.18377 -152.25707 25160 ft 290 kts 245°
2026-04-22 19:48 23.17424 -152.27638 25163 ft 287 kts 245°
2026-04-22 19:49 23.16480 -152.29553 25161 ft 285 kts 245°
2026-04-22 19:49 23.15544 -152.31446 25156 ft 282 kts 246°
2026-04-22 19:49 23.14611 -152.33351 24942 ft 289 kts 246°
2026-04-22 19:49 23.13666 -152.35341 24730 ft 294 kts 246°
2026-04-22 19:50 23.12768 -152.37282 24867 ft 285 kts 247°
2026-04-22 19:50 23.11896 -152.39258 24622 ft 294 kts 249°
2026-04-22 19:50 23.11069 -152.41330 24707 ft 285 kts 252°
2026-04-22 19:50 23.10381 -152.43293 24661 ft 285 kts 254°
2026-04-22 19:51 23.09777 -152.45367 24533 ft 286 kts 258°
2026-04-22 19:51 23.09288 -152.47440 24532 ft 284 kts 259°
2026-04-22 19:51 23.08824 -152.49512 24424 ft 285 kts 260°
2026-04-22 19:51 23.08396 -152.51586 24540 ft 277 kts 262°
2026-04-22 19:52 23.07919 -152.53606 24487 ft 279 kts 250°
2026-04-22 19:52 23.07181 -152.55594 24394 ft 277 kts 249°
2026-04-22 19:52 23.06337 -152.57436 24335 ft 276 kts 244°
2026-04-22 19:52 23.05411 -152.59279 24241 ft 282 kts 241°
2026-04-22 19:53 23.04298 -152.61127 24180 ft 300 kts 237°
2026-04-22 19:53 23.02963 -152.62954 24173 ft 319 kts 229°
2026-04-22 19:53 23.01917 -152.64116 24169 ft 330 kts 229°
2026-04-22 19:53 22.99698 -152.66590 24168 ft 351 kts 229°
2026-04-22 19:54 22.97953 -152.68544 24170 ft 368 kts 229°
2026-04-22 19:54 22.96153 -152.70594 24201 ft 381 kts 232°
2026-04-22 19:54 22.94600 -152.72957 24314 ft 390 kts 240°
2026-04-22 19:54 22.93204 -152.75542 24447 ft 399 kts 244°
2026-04-22 19:55 22.91920 -152.78193 24742 ft 404 kts 245°
2026-04-22 19:55 22.90646 -152.80927 25109 ft 407 kts 246°
2026-04-22 19:55 22.89358 -152.83674 25488 ft 410 kts 245°
2026-04-22 19:55 22.88039 -152.86420 25858 ft 412 kts 245°
2026-04-22 19:56 22.86676 -152.89181 26242 ft 415 kts 244°
2026-04-22 19:56 22.85290 -152.91937 26628 ft 417 kts 244°
2026-04-22 19:56 22.83881 -152.94708 27008 ft 420 kts 244°
2026-04-22 19:56 22.82464 -152.97486 27380 ft 422 kts 244°
2026-04-22 19:57 22.81036 -153.00287 27755 ft 424 kts 244°
2026-04-22 19:57 22.79628 -153.03059 28117 ft 426 kts 244°
2026-04-22 19:57 22.78197 -153.05895 28481 ft 429 kts 244°
2026-04-22 19:57 22.76763 -153.08742 28841 ft 431 kts 244°
2026-04-22 19:58 22.75315 -153.11607 29196 ft 433 kts 244°
2026-04-22 19:58 22.73862 -153.14475 29565 ft 435 kts 244°
2026-04-22 19:58 22.72415 -153.17328 29904 ft 438 kts 244°
2026-04-22 19:58 22.70944 -153.20229 30246 ft 440 kts 244°
2026-04-22 19:59 22.69474 -153.23138 30539 ft 442 kts 244°
2026-04-22 20:00 22.60457 -153.40869 32128 ft 452 kts 244°
2026-04-22 20:01 22.57432 -153.46821 31897 ft 448 kts 244°
2026-04-22 20:01 22.56435 -153.48776 31565 ft 446 kts 244°
2026-04-22 20:01 22.54937 -153.51709 31046 ft 443 kts 244°
2026-04-22 20:01 22.53446 -153.54626 30539 ft 440 kts 244°
2026-04-22 20:02 22.51968 -153.57521 30001 ft 438 kts 244°
2026-04-22 20:02 22.50495 -153.60407 29422 ft 435 kts 244°
2026-04-22 20:02 22.49022 -153.63293 28873 ft 431 kts 244°
2026-04-22 20:02 22.47571 -153.66134 28339 ft 427 kts 244°
2026-04-22 20:03 22.46134 -153.68940 27818 ft 424 kts 244°
2026-04-22 20:03 22.44710 -153.71720 27311 ft 420 kts 244°
2026-04-22 20:03 22.43296 -153.74477 26807 ft 417 kts 243°
2026-04-22 20:03 22.41889 -153.77212 26309 ft 414 kts 243°
2026-04-22 20:04 22.40495 -153.79924 25819 ft 411 kts 243°
2026-04-22 20:04 22.39111 -153.82620 25374 ft 408 kts 243°
2026-04-22 20:04 22.37752 -153.85266 25159 ft 407 kts 243°
2026-04-22 20:04 22.36566 -153.88030 25139 ft 403 kts 257°
2026-04-22 20:05 22.36114 -153.91053 25155 ft 402 kts 267°
2026-04-22 20:05 22.36028 -153.94030 25153 ft 401 kts 272°
2026-04-22 20:05 22.36153 -153.97077 25152 ft 401 kts 275°
2026-04-22 20:05 22.36361 -154.00085 25149 ft 401 kts 276°
2026-04-22 20:06 22.36567 -154.03095 25149 ft 401 kts 275°
2026-04-22 20:06 22.36726 -154.06145 25149 ft 401 kts 274°
2026-04-22 20:06 22.36830 -154.09130 25150 ft 402 kts 273°
2026-04-22 20:06 22.36898 -154.12148 25152 ft 402 kts 272°
2026-04-22 20:07 22.36945 -154.15176 25152 ft 402 kts 272°
2026-04-22 20:07 22.36988 -154.18205 25152 ft 402 kts 272°
2026-04-22 20:07 22.37035 -154.21223 25152 ft 402 kts 272°
2026-04-22 20:07 22.37085 -154.24246 25152 ft 402 kts 272°
2026-04-22 20:08 22.37139 -154.27268 25149 ft 402 kts 272°
2026-04-22 20:08 22.37200 -154.30287 25149 ft 402 kts 272°
2026-04-22 20:08 22.37260 -154.33313 25149 ft 402 kts 272°
2026-04-22 20:08 22.37321 -154.36309 25147 ft 402 kts 272°
2026-04-22 20:09 22.37380 -154.39321 24840 ft 399 kts 272°
2026-04-22 20:09 22.37435 -154.42309 24409 ft 396 kts 272°
2026-04-22 20:09 22.37489 -154.45283 23994 ft 394 kts 272°
2026-04-22 20:09 22.37542 -154.48245 23493 ft 393 kts 272°
2026-04-22 20:10 22.37597 -154.51244 22461 ft 404 kts 272°
2026-04-22 20:10 22.37653 -154.54303 21761 ft 405 kts 272°
2026-04-22 20:10 22.37706 -154.57348 21196 ft 403 kts 272°
2026-04-22 20:10 22.37757 -154.60334 20697 ft 401 kts 272°
2026-04-22 20:11 22.37807 -154.63374 20267 ft 397 kts 272°
2026-04-22 20:11 22.37858 -154.66321 20121 ft 398 kts 272°
2026-04-22 20:11 22.37915 -154.69364 20151 ft 413 kts 272°
2026-04-22 20:11 22.37975 -154.72513 20153 ft 422 kts 272°
2026-04-22 20:12 22.38030 -154.75684 20149 ft 424 kts 272°
2026-04-22 20:12 22.38082 -154.78914 20150 ft 425 kts 272°
2026-04-22 20:12 22.38115 -154.81026 20150 ft 425 kts 272°
2026-04-22 20:12 22.38180 -154.85255 20149 ft 425 kts 272°
2026-04-22 20:13 22.38229 -154.88488 20154 ft 425 kts 272°
2026-04-22 20:13 22.38281 -154.91681 20152 ft 425 kts 272°
2026-04-22 20:13 22.38334 -154.94867 20152 ft 425 kts 272°
2026-04-22 20:13 22.38385 -154.98064 20150 ft 425 kts 272°
2026-04-22 20:14 22.38432 -155.01255 20153 ft 426 kts 272°
2026-04-22 20:14 22.38478 -155.04455 20152 ft 426 kts 272°
2026-04-22 20:14 22.38523 -155.07655 20152 ft 426 kts 272°
2026-04-22 20:14 22.38572 -155.10847 20152 ft 425 kts 272°
2026-04-22 20:15 22.38621 -155.14041 20151 ft 425 kts 272°
2026-04-22 20:15 22.38666 -155.17240 20152 ft 425 kts 272°
2026-04-22 20:15 22.38709 -155.20430 20152 ft 426 kts 272°
2026-04-22 20:15 22.38752 -155.23629 20152 ft 426 kts 272°
2026-04-22 20:16 22.38796 -155.26834 20149 ft 426 kts 272°
2026-04-22 20:16 22.38840 -155.30026 20149 ft 426 kts 272°
2026-04-22 20:16 22.38880 -155.33229 20144 ft 426 kts 272°
2026-04-22 20:16 22.38920 -155.36474 20149 ft 426 kts 272°
2026-04-22 20:17 22.38961 -155.39668 20151 ft 426 kts 272°
2026-04-22 20:17 22.39005 -155.42864 20149 ft 426 kts 272°
2026-04-22 20:17 22.39049 -155.46061 20149 ft 426 kts 272°
2026-04-22 20:17 22.39091 -155.49263 20149 ft 426 kts 272°
2026-04-22 20:18 22.39128 -155.52463 20148 ft 425 kts 272°
2026-04-22 20:18 22.39158 -155.55655 20150 ft 425 kts 272°
2026-04-22 20:18 22.39189 -155.58855 20149 ft 425 kts 272°
2026-04-22 20:18 22.39225 -155.62054 20147 ft 425 kts 272°
2026-04-22 20:19 22.39264 -155.65290 20151 ft 426 kts 272°
2026-04-22 20:19 22.39301 -155.68485 20149 ft 426 kts 272°
2026-04-22 20:19 22.39338 -155.71689 20149 ft 426 kts 272°
2026-04-22 20:19 22.39377 -155.74890 20149 ft 426 kts 272°
2026-04-22 20:20 22.39414 -155.78087 20149 ft 426 kts 272°
2026-04-22 20:20 22.39446 -155.81286 20150 ft 426 kts 272°
2026-04-22 20:20 22.39475 -155.84494 20149 ft 426 kts 272°
2026-04-22 20:20 22.39504 -155.87691 20150 ft 426 kts 272°
2026-04-22 20:21 22.39531 -155.90891 20149 ft 426 kts 272°
2026-04-22 20:21 22.39562 -155.94098 20146 ft 426 kts 272°
2026-04-22 20:21 22.39595 -155.97255 20150 ft 427 kts 272°
2026-04-22 20:21 22.39627 -156.00518 20149 ft 427 kts 272°
2026-04-22 20:22 22.39657 -156.03760 20149 ft 427 kts 272°
2026-04-22 20:22 22.39683 -156.06967 20149 ft 427 kts 272°
2026-04-22 20:22 22.39708 -156.10169 20040 ft 424 kts 272°
2026-04-22 20:22 22.39733 -156.13149 19474 ft 420 kts 272°
2026-04-22 20:23 22.39762 -156.16521 18824 ft 417 kts 272°
2026-04-22 20:23 22.39785 -156.19597 18235 ft 414 kts 273°
2026-04-22 20:23 22.39750 -156.22697 17601 ft 412 kts 266°
2026-04-22 20:23 22.39319 -156.24731 17210 ft 414 kts 252°
2026-04-22 20:24 22.37499 -156.28393 16383 ft 416 kts 237°
2026-04-22 20:24 22.35676 -156.30814 15785 ft 415 kts 230°
2026-04-22 20:24 22.34364 -156.32318 15400 ft 414 kts 228°
2026-04-22 20:24 22.32320 -156.34553 14809 ft 412 kts 227°
2026-04-22 20:25 22.30359 -156.36736 14243 ft 409 kts 229°
2026-04-22 20:25 22.28445 -156.38990 13640 ft 406 kts 230°
2026-04-22 20:25 22.26584 -156.41315 13039 ft 401 kts 232°
2026-04-22 20:25 22.24823 -156.43614 12471 ft 396 kts 232°
2026-04-22 20:26 22.23076 -156.45942 12075 ft 391 kts 232°
2026-04-22 20:26 22.21362 -156.48222 11979 ft 390 kts 232°
2026-04-22 20:26 22.19636 -156.50486 12001 ft 392 kts 232°
2026-04-22 20:26 22.17892 -156.52752 12005 ft 392 kts 232°
2026-04-22 20:27 22.16150 -156.55009 12010 ft 392 kts 232°
2026-04-22 20:27 22.14403 -156.57267 12004 ft 392 kts 231°
2026-04-22 20:27 22.12638 -156.59545 12008 ft 391 kts 231°
2026-04-22 20:27 22.10951 -156.61735 12002 ft 374 kts 232°
2026-04-22 20:28 22.09318 -156.63869 12004 ft 359 kts 232°
2026-04-22 20:28 22.07736 -156.65927 12005 ft 357 kts 232°
2026-04-22 20:28 22.06143 -156.67991 12005 ft 357 kts 232°
2026-04-22 20:28 22.04556 -156.70041 12005 ft 356 kts 231°
2026-04-22 20:29 22.02964 -156.72097 12005 ft 356 kts 232°
2026-04-22 20:29 22.01387 -156.74137 12004 ft 350 kts 232°
2026-04-22 20:29 21.99845 -156.76138 12005 ft 346 kts 232°
2026-04-22 20:29 21.98285 -156.78154 12005 ft 345 kts 231°
2026-04-22 20:30 21.96750 -156.80132 12003 ft 345 kts 231°
2026-04-22 20:30 21.95211 -156.82113 12005 ft 344 kts 231°
2026-04-22 20:30 21.93671 -156.84094 12005 ft 344 kts 231°
2026-04-22 20:30 21.92133 -156.86072 12006 ft 345 kts 231°
2026-04-22 20:31 21.90595 -156.88055 12003 ft 345 kts 232°
2026-04-22 20:31 21.89061 -156.90038 12002 ft 345 kts 231°
2026-04-22 20:31 21.87527 -156.92021 12002 ft 345 kts 231°
2026-04-22 20:31 21.85970 -156.94030 12003 ft 345 kts 231°
2026-04-22 20:32 21.84430 -156.96007 12005 ft 345 kts 231°
2026-04-22 20:32 21.82886 -156.97985 12005 ft 345 kts 231°
2026-04-22 20:32 21.81344 -156.99958 12005 ft 345 kts 231°
2026-04-22 20:32 21.79800 -157.01933 12005 ft 345 kts 231°
2026-04-22 20:33 21.78255 -157.03904 12003 ft 345 kts 231°
2026-04-22 20:33 21.76706 -157.05879 12002 ft 345 kts 231°
2026-04-22 20:33 21.75191 -157.07820 11992 ft 323 kts 231°
2026-04-22 20:33 21.73805 -157.09615 11998 ft 302 kts 232°
2026-04-22 20:34 21.72506 -157.11307 11998 ft 283 kts 232°
2026-04-22 20:34 21.71278 -157.12904 11997 ft 265 kts 232°
2026-04-22 20:34 21.70143 -157.14373 11998 ft 246 kts 232°
2026-04-22 20:34 21.69089 -157.15736 11950 ft 230 kts 233°
2026-04-22 20:35 21.68062 -157.17078 11272 ft 244 kts 232°
2026-04-22 20:35 21.66987 -157.18502 11008 ft 238 kts 233°
2026-04-22 20:35 21.65970 -157.19874 10736 ft 234 kts 235°
2026-04-22 20:35 21.64961 -157.21225 10550 ft 225 kts 233°
2026-04-22 20:36 21.64004 -157.22484 10353 ft 219 kts 232°
2026-04-22 20:36 21.63064 -157.23782 9987 ft 219 kts 235°
2026-04-22 20:36 21.62184 -157.25094 9784 ft 210 kts 234°
2026-04-22 20:36 21.61259 -157.26321 9341 ft 214 kts 227°
2026-04-22 20:37 21.60171 -157.27436 8925 ft 216 kts 228°
2026-04-22 20:37 21.59244 -157.28693 8550 ft 215 kts 232°
2026-04-22 20:37 21.58287 -157.29900 8323 ft 206 kts 231°
2026-04-22 20:37 21.57439 -157.31089 8063 ft 200 kts 236°
2026-04-22 20:38 21.56557 -157.32329 7452 ft 215 kts 229°
2026-04-22 20:38 21.55564 -157.33482 7286 ft 205 kts 228°
2026-04-22 20:38 21.54607 -157.34621 6865 ft 211 kts 232°
2026-04-22 20:38 21.53718 -157.35868 6547 ft 209 kts 233°